Canton, MA

4:08 PM EST on February 24, 2017 (GMT -0500)
East Milton

Weather History for KMQE - November, 2012

Change the Weather History Date:

Wednesday, November 21, 2012

  Actual Average (KOWD) Record (KOWD)
Temperature  
Mean Temperature 42 °F -  
Max Temperature 48 °F 47 °F 61 °F (1999)
Min Temperature 36 °F 28 °F 12 °F (2008)
Degree Days  
Heating Degree Days 23    
Moisture  
Dew Point 35 °F    
Average Humidity 76    
Maximum Humidity 89    
Minimum Humidity 67    
Precipitation  
Precipitation 0.00 in - - ()
Sea Level Pressure  
Sea Level Pressure 30.23 in    
Wind  
Wind Speed 10 mph (NNE)    
Max Wind Speed 12 mph    
Max Gust Speed 16 mph    
Averages and records for this station are not official NWS values.
T = Trace of Precipitation, MM = Missing Value Source: NWS Daily Summary

Daily Weather History Graph

Daily Weather History Graph

Search for Another Location

Airport or City:

Trip Planner

Search our weather history database for the weather conditions in past years. The results will help you decide how hot, cold, wet, or windy it might be!

Date:

Astronomy

Nov. 21, 2012 Rise Set
Actual Time 6:42 AM EST 4:17 PM EST
Civil Twilight 6:12 AM EST 4:48 PM EST
Nautical Twilight 5:37 AM EST 5:22 PM EST
Astronomical Twilight 5:04 AM EST 5:56 PM EST
Moon 12:39 PM EST (11/21) No Moon Set
Length of Visible Light 10h 36m
Length of Day
9h 35m
First Quarter, 61% of the Moon is Illuminated
Nov 21
First Quarter
Nov 28
Full
Dec 6
Last Quarter
Dec 13
New
Dec 20
First Quarter

Hourly Weather History & Observations

Time (EST) Temp. Windchill Dew Point Humidity Pressure Visibility Wind Dir Wind Speed Gust Speed Precip Events Conditions
12:54 AM 39.0 °F 32.3 °F 30.9 °F 73% 30.18 in - NNE 10.4 mph - N/A   Unknown
1:54 AM 37.9 °F 30.9 °F 28.9 °F 70% 30.18 in - North 10.4 mph - N/A   Unknown
2:54 AM 37.0 °F 29.3 °F 27.0 °F 67% 30.18 in - North 11.5 mph - N/A   Unknown
3:54 AM 37.0 °F 29.3 °F 27.0 °F 67% 30.18 in - North 11.5 mph - N/A   Unknown
4:54 AM 36.0 °F 28.5 °F 27.0 °F 70% 30.19 in - North 10.4 mph - N/A   Unknown
5:54 AM 36.0 °F 28.0 °F 28.0 °F 73% 30.20 in - North 11.5 mph - N/A   Unknown
6:54 AM 36.0 °F 28.0 °F 28.0 °F 73% 30.22 in - North 11.5 mph - N/A   Unknown
7:54 AM 37.9 °F 30.5 °F 28.9 °F 70% 30.24 in - North 11.5 mph - N/A   Unknown
8:54 AM 39.0 °F 32.3 °F 30.9 °F 73% 30.24 in - North 10.4 mph - N/A   Unknown
9:54 AM 43.0 °F 38.2 °F 34.0 °F 71% 30.25 in - North 8.1 mph - N/A   Unknown
10:54 AM 46.0 °F 40.6 °F 36.0 °F 68% 30.25 in - NNE 11.5 mph - N/A   Unknown
11:54 AM 46.9 °F - 37.0 °F 68% 30.24 in - NE 9.2 mph - N/A   Unknown
12:54 PM 48.0 °F - 37.9 °F 68% 30.22 in - NE 8.1 mph - N/A   Unknown
1:54 PM 46.9 °F - 37.9 °F 71% 30.22 in - NNE 8.1 mph - N/A   Unknown
2:54 PM 46.0 °F 41.4 °F 39.0 °F 76% 30.23 in - NNE 9.2 mph 16.1 mph N/A   Unknown
3:54 PM 45.0 °F 40.6 °F 37.9 °F 76% 30.23 in - NNE 8.1 mph - N/A   Unknown
4:54 PM 44.1 °F 40.1 °F 39.0 °F 82% 30.24 in - NNE 6.9 mph - N/A   Unknown
5:54 PM 44.1 °F 39.0 °F 39.9 °F 85% 30.25 in - NNE 9.2 mph - N/A   Unknown
6:54 PM 44.1 °F 39.0 °F 41.0 °F 89% 30.27 in - North 9.2 mph - N/A   Unknown
7:54 PM 44.1 °F 39.5 °F 41.0 °F 89% 30.27 in - North 8.1 mph - N/A   Unknown
8:54 PM 43.0 °F 38.8 °F 39.9 °F 89% 30.27 in - NNW 6.9 mph - N/A   Unknown
9:54 PM 43.0 °F 38.2 °F 39.9 °F 89% 30.27 in - North 8.1 mph - N/A   Unknown
10:54 PM 43.0 °F 37.7 °F 39.9 °F 89% 30.26 in - NNE 9.2 mph - N/A   Unknown
11:54 PM 41.0 °F 34.7 °F 37.9 °F 89% 30.26 in - North 10.4 mph - N/A   Unknown